Wind_Speed
15 15 15 15 14 14 15 16 17 18 17 18 19 19 19 18 19 19 19 19 19 19 19 19 19 20 20 20 21 21 20 21 21 21 21 21 20 21 20 21 21 21 22
15 15 15 14 13 15 16 17 18 18 19 19 19 19 19 19 19 20 20 20 19 19 19 20 20 20 21 21 22 22 22 23 22 22 22 21 21 21 20 20 21 21 21
15 14 14 15 15 16 16 17 18 19 19 20 20 19 19 20 20 20 20 20 20 20 21 21 22 22 22 22 22 23 23 23 23 22 22 21 21 21 20 21 21 21 21
15 15 16 16 17 17 17 17 18 19 20 20 20 20 20 21 21 21 21 21 21 22 22 22 23 23 22 23 23 23 23 23 23 23 22 21 21 21 21 21 21 21 22
15 16 17 17 17 18 18 18 19 19 19 19 20 20 21 22 22 23 23 22 22 23 23 23 23 23 23 23 23 24 24 24 24 23 23 22 22 22 21 21 21 21 22
17 17 18 18 18 18 18 19 19 19 20 20 20 21 22 22 22 23 23 23 23 23 23 24 24 24 24 23 24 24 24 24 24 23 23 23 23 23 22 22 22 22 22
18 18 19 19 19 19 20 20 20 20 21 21 21 22 22 23 23 23 23 23 23 23 23 24 24 24 24 24 24 24 24 24 24 24 23 23 24 24 23 23 24 24 24
19 19 19 19 20 20 20 21 21 21 21 22 22 22 22 23 23 23 23 23 23 24 24 24 24 24 25 25 24 24 24 23 23 23 23 23 24 24 24 24 24 24 25
19 19 19 20 20 20 20 20 21 22 22 22 22 22 22 23 24 24 24 24 24 24 24 24 25 25 25 25 24 24 24 24 24 23 23 24 24 24 24 24 24 24 25
19 19 19 20 20 20 20 20 22 22 22 23 23 23 23 23 24 24 25 25 25 25 25 25 25 25 25 25 25 25 25 25 24 24 25 25 26 25 25 25 25 25 25
21 21 20 20 20 20 20 21 22 22 22 23 23 23 23 24 24 25 25 25 26 26 26 25 25 25 25 25 25 25 24 24 24 24 25 26 26 26 26 26 26 26 26
21 21 21 21 21 22 22 22 22 22 22 22 22 22 23 24 24 25 25 26 26 26 26 25 25 25 25 25 25 24 24 24 24 24 24 25 25 26 26 26 27 27 26
22 22 22 22 22 22 22 22 21 21 22 22 22 22 22 23 24 24 25 25 26 26 25 25 25 24 24 24 24 24 24 23 23 23 24 24 25 25 25 25 26 27 26
22 22 23 23 23 22 22 21 21 21 21 22 22 22 22 22 23 24 24 24 24 24 24 23 23 23 23 22 22 22 22 23 23 23 23 23 23 23 24 24 25 25 25
22 22 22 22 22 22 22 22 21 21 22 22 22 22 22 22 23 24 25 24 23 23 23 23 22 22 21 21 21 21 21 22 22 22 22 22 22 22 22 22 22 22 22
23 23 23 23 23 22 22 21 21 21 21 21 22 22 21 22 22 22 22 22 22 22 22 21 21 21 21 21 21 21 21 21 21 21 20 20 20 20 21 21 21 21 21
24 24 24 24 23 23 23 22 22 21 21 21 20 19 20 20 20 20 20 19 19 20 21 21 20 20 20 20 20 20 20 20 20 19 19 20 20 19 19 19 20 19 19
24 24 23 23 23 23 22 22 22 21 21 20 20 20 20 20 19 18 18 18 19 20 20 20 20 20 20 19 19 19 19 19 19 19 19 19 19 18 18 18 18 18 17
22 22 22 22 22 22 22 21 21 21 21 20 20 19 19 19 18 17 17 18 18 18 18 18 18 18 19 19 19 19 18 19 19 19 19 18 18 17 17 17 17 17 17
21 21 22 21 21 21 21 21 20 20 19 19 19 19 18 17 17 17 17 17 17 17 17 17 17 17 17 18 18 18 18 19 19 18 18 18 17 17 17 17 17 17 17
22 22 21 21 20 21 21 20 20 20 19 18 18 17 17 16 16 15 15 16 16 16 16 16 17 17 17 18 19 19 19 18 18 18 17 17 17 17 17 17 16 17 17
22 22 21 20 20 20 20 19 20 20 19 18 18 18 17 17 17 16 16 16 16 16 17 17 17 18 18 18 18 17 17 18 18 17 17 17 17 17 17 16 15 15 15
21 21 21 20 20 20 20 20 20 20 19 19 19 18 18 19 19 19 18 18 17 17 17 18 18 17 17 18 18 17 17 17 17 17 17 17 16 16 16 16 16 16 15
21 20 20 19 19 20 20 20 20 20 20 20 20 20 19 18 18 19 19 19 19 19 18 17 17 17 18 18 18 18 18 18 18 18 18 17 16 16 16 16 16 16 16
19 20 20 20 19 19 19 20 20 21 21 20 20 21 20 19 18 18 19 20 19 19 18 18 18 18 18 19 18 18 18 18 18 18 17 17 16 16 17 17 17 17 17
19 19 19 20 20 20 20 20 20 21 21 21 20 20 21 21 21 20 20 20 20 19 19 19 19 19 19 19 19 19 18 18 18 17 17 17 16 16 17 17 17 17 17
Wind_Direction
266 263 263 265 263 261 258 254 253 255 257 256 257 258 258 258 259 259 261 260 260 261 263 265 267 270 270 271 272 274 276 276 276 276 278 279 280 280 277 275 274 275 273
266 262 263 264 266 265 263 259 259 260 259 258 257 258 258 259 260 260 260 261 261 263 264 266 268 270 272 273 272 274 276 276 276 275 276 277 278 278 276 275 274 275 274
267 262 262 264 266 266 267 266 264 263 260 256 256 257 258 260 260 259 259 258 261 263 265 267 269 270 271 273 276 276 276 276 275 275 275 276 276 275 275 275 273 271 271
267 266 265 266 267 267 267 264 264 263 261 258 257 257 258 259 260 260 258 259 262 265 266 268 268 269 272 275 278 278 277 276 276 275 275 275 274 274 275 275 273 271 272
272 271 268 268 268 267 266 264 264 264 261 259 259 259 259 260 261 261 260 261 264 266 268 268 268 269 271 275 276 277 278 278 276 276 274 273 273 273 275 275 273 273 275
274 274 273 270 267 265 266 266 264 263 262 262 261 261 262 262 261 262 263 264 266 267 269 270 270 270 272 273 275 276 277 277 275 274 274 274 273 273 274 274 273 274 276
272 272 272 272 270 268 267 267 265 262 263 262 261 261 262 263 263 264 265 266 267 269 270 270 271 272 273 274 275 275 277 276 273 273 273 273 273 273 273 273 274 275 276
271 271 272 272 272 271 270 267 266 263 264 263 263 263 264 264 264 265 266 266 269 271 271 271 272 272 273 275 276 275 275 275 273 272 273 273 274 275 274 274 275 277 277
271 272 272 273 273 271 270 269 269 266 265 265 264 265 264 264 266 265 266 267 270 271 271 271 272 273 274 275 275 274 273 272 271 270 270 271 274 275 275 275 276 277 278
271 272 272 272 272 271 270 270 270 268 267 265 265 265 265 265 265 265 266 267 268 269 270 271 271 272 274 275 274 273 273 272 271 270 270 272 273 273 273 274 276 277 279
271 272 272 271 272 272 273 273 272 270 268 267 266 265 264 264 265 265 266 267 268 269 270 270 271 272 273 275 275 275 274 273 272 272 272 271 271 271 272 274 276 277 278
270 269 270 272 273 274 274 274 273 272 270 269 268 267 266 265 265 264 265 267 268 269 269 269 271 272 272 274 274 274 275 275 274 274 274 273 273 272 271 273 275 277 278
270 271 272 273 273 274 273 273 272 270 271 270 270 268 267 267 267 266 266 267 268 268 269 269 270 271 271 272 273 273 273 273 274 275 275 274 274 274 273 273 275 277 278
271 272 273 273 272 272 272 273 271 271 271 271 271 271 270 269 268 266 267 268 268 267 268 270 271 270 272 273 272 270 270 272 274 275 274 274 274 275 274 274 275 276 278
271 273 274 274 272 271 270 271 271 272 273 273 272 271 271 269 269 268 266 267 267 266 267 268 268 268 269 270 270 269 270 274 277 278 277 275 275 274 274 275 276 278 279
270 273 274 274 271 270 271 271 270 272 273 273 272 272 271 270 268 268 267 266 266 268 268 268 269 269 268 269 268 269 270 274 277 278 277 277 277 276 275 276 278 281 282
270 271 272 271 270 269 269 270 269 269 270 271 271 271 271 272 270 269 269 270 269 269 270 269 268 268 267 266 267 268 271 274 277 278 278 278 278 277 275 276 279 282 281
268 269 270 270 268 268 267 268 269 267 267 268 269 271 273 273 272 272 273 274 274 272 269 267 266 266 265 264 267 269 272 275 277 277 278 278 277 275 275 277 280 281 281
266 267 268 268 268 266 267 268 267 264 264 265 268 269 271 271 271 272 274 274 272 271 268 266 266 267 266 265 267 270 272 275 277 278 278 276 274 274 275 276 278 279 278
265 266 265 266 267 266 266 266 264 263 263 263 264 264 267 269 270 271 272 272 272 270 268 266 266 268 269 268 268 270 271 274 276 276 277 276 273 272 273 275 276 276 275
262 264 263 263 265 267 265 262 261 261 260 260 261 262 263 264 268 269 270 271 271 269 268 268 268 268 269 270 272 271 271 272 272 274 275 274 271 271 273 275 276 275 273
260 262 261 263 263 264 262 259 259 258 257 258 261 261 260 261 263 266 269 270 272 271 270 271 270 270 271 272 274 272 272 272 271 271 273 272 270 270 272 273 272 273 271
258 259 260 260 262 262 261 260 260 258 257 256 258 261 261 261 262 264 266 268 271 274 275 273 270 269 271 273 273 272 273 273 273 273 272 269 268 270 271 272 271 270 270
259 259 259 259 262 263 261 260 260 257 257 257 258 259 260 261 263 265 267 269 272 274 275 273 272 270 270 273 272 270 271 273 274 274 270 266 268 272 272 272 272 270 269
262 261 259 260 263 263 262 262 261 259 258 258 258 260 260 260 263 267 269 270 271 272 273 273 272 271 272 272 269 268 268 271 273 272 269 268 268 268 269 270 270 269 268
263 262 262 262 262 264 262 261 261 260 257 257 257 257 259 262 265 267 269 269 270 270 271 273 272 271 272 272 270 268 266 268 269 268 267 266 266 265 268 269 269 269 268
Height
5795 5795 5796 5797 5797 5797 5797 5798 5799 5800 5800 5801 5802 5802 5803 5803 5804 5804 5805 5806 5806 5807 5807 5807 5807 5807 5806 5805 5805 5804 5803 5803 5802 5801 5800 5799 5798 5796 5796 5795 5795 5794 5794
5790 5791 5792 5792 5792 5793 5793 5793 5793 5794 5795 5795 5796 5796 5797 5797 5798 5798 5799 5799 5800 5800 5801 5801 5801 5800 5800 5799 5798 5798 5797 5796 5795 5795 5794 5793 5791 5790 5790 5789 5789 5788 5788
5786 5787 5787 5788 5788 5788 5788 5788 5788 5789 5789 5790 5790 5791 5791 5792 5792 5792 5793 5793 5794 5794 5794 5794 5794 5794 5793 5793 5792 5791 5790 5789 5788 5788 5787 5786 5785 5784 5784 5783 5783 5782 5781
5782 5782 5783 5783 5783 5783 5783 5783 5783 5783 5783 5784 5784 5785 5785 5786 5786 5786 5787 5787 5787 5787 5787 5787 5787 5787 5786 5786 5785 5784 5783 5782 5782 5781 5780 5780 5779 5778 5778 5777 5776 5776 5775
5777 5777 5777 5777 5777 5777 5778 5778 5778 5778 5778 5778 5778 5779 5779 5780 5780 5780 5780 5780 5780 5781 5781 5780 5780 5780 5779 5779 5778 5777 5776 5775 5774 5774 5773 5773 5772 5772 5771 5771 5770 5769 5768
5772 5772 5771 5771 5771 5771 5771 5772 5772 5772 5772 5772 5772 5772 5773 5773 5773 5773 5773 5774 5774 5774 5773 5773 5773 5772 5772 5771 5771 5770 5769 5768 5767 5767 5766 5766 5766 5765 5764 5764 5763 5763 5762
5766 5766 5766 5766 5765 5765 5765 5765 5766 5766 5766 5765 5765 5765 5766 5766 5766 5766 5766 5766 5766 5766 5766 5766 5765 5765 5764 5764 5763 5762 5761 5760 5760 5759 5759 5759 5758 5758 5757 5757 5756 5755 5755
5761 5760 5760 5760 5760 5759 5759 5759 5759 5759 5759 5758 5758 5758 5758 5758 5758 5759 5759 5759 5759 5759 5758 5758 5758 5757 5757 5756 5755 5755 5754 5753 5752 5752 5751 5751 5751 5750 5750 5749 5749 5748 5747
5755 5755 5754 5754 5753 5753 5753 5752 5752 5752 5752 5751 5751 5751 5751 5751 5751 5751 5751 5751 5751 5751 5751 5750 5750 5750 5749 5748 5747 5747 5746 5745 5744 5744 5744 5743 5743 5742 5742 5742 5741 5740 5740
5748 5748 5748 5747 5747 5747 5746 5746 5745 5745 5744 5744 5744 5744 5744 5743 5743 5743 5743 5743 5743 5743 5743 5742 5742 5741 5741 5740 5739 5739 5738 5737 5737 5736 5736 5736 5735 5735 5734 5734 5733 5732 5732
5742 5741 5741 5741 5740 5740 5739 5739 5738 5737 5737 5737 5736 5736 5736 5735 5735 5735 5735 5735 5735 5735 5734 5734 5734 5733 5732 5732 5731 5731 5730 5729 5729 5728 5728 5728 5727 5727 5726 5726 5725 5725 5724
5735 5735 5735 5734 5734 5733 5733 5732 5731 5730 5729 5729 5729 5728 5728 5728 5728 5727 5727 5727 5727 5726 5726 5726 5726 5725 5725 5724 5723 5723 5722 5722 5721 5720 5720 5719 5719 5718 5718 5718 5717 5716 5716
5729 5728 5728 5727 5727 5726 5725 5725 5724 5723 5722 5722 5721 5721 5720 5720 5719 5719 5719 5719 5718 5718 5718 5718 5717 5717 5716 5716 5716 5715 5715 5714 5713 5713 5712 5711 5711 5710 5710 5709 5709 5708 5708
5721 5721 5721 5720 5720 5719 5718 5717 5716 5716 5715 5714 5714 5713 5713 5712 5712 5711 5711 5711 5711 5710 5710 5710 5709 5709 5709 5708 5708 5707 5707 5707 5706 5705 5704 5704 5703 5702 5702 5702 5701 5701 5701
5714 5714 5713 5713 5712 5711 5711 5710 5709 5709 5708 5707 5707 5706 5705 5705 5704 5703 5703 5703 5703 5703 5702 5702 5702 5702 5702 5701 5701 5701 5700 5700 5699 5698 5697 5696 5696 5695 5695 5695 5694 5694 5694
5707 5706 5706 5705 5704 5704 5704 5703 5702 5702 5701 5700 5700 5699 5698 5698 5697 5696 5696 5695 5695 5695 5695 5695 5695 5695 5695 5694 5694 5694 5694 5693 5692 5691 5690 5689 5689 5689 5689 5688 5688 5688 5687
5698 5698 5698 5697 5697 5696 5696 5696 5696 5695 5694 5694 5693 5692 5691 5690 5690 5690 5689 5688 5688 5688 5688 5688 5688 5688 5687 5687 5687 5687 5687 5686 5686 5685 5684 5683 5683 5682 5682 5682 5682 5681 5681
5690 5689 5689 5689 5689 5689 5688 5688 5688 5687 5687 5687 5686 5686 5685 5684 5684 5683 5682 5682 5682 5681 5681 5681 5681 5681 5681 5681 5681 5681 5680 5680 5679 5679 5678 5677 5677 5676 5676 5676 5675 5675 5675
5681 5681 5681 5681 5681 5681 5680 5680 5680 5680 5680 5680 5680 5679 5679 5678 5678 5677 5677 5676 5676 5675 5674 5674 5674 5674 5674 5674 5674 5674 5674 5674 5673 5673 5672 5671 5671 5671 5671 5670 5670 5669 5669
5673 5673 5673 5673 5673 5673 5673 5673 5673 5673 5673 5673 5673 5673 5673 5672 5672 5672 5671 5670 5670 5669 5668 5668 5668 5668 5668 5668 5668 5668 5668 5667 5667 5667 5666 5666 5665 5665 5665 5664 5664 5664 5664
5665 5665 5666 5666 5666 5666 5666 5666 5666 5667 5667 5667 5667 5667 5667 5667 5667 5666 5665 5665 5664 5663 5663 5663 5663 5662 5662 5662 5662 5662 5662 5661 5661 5661 5660 5660 5660 5659 5659 5659 5659 5658 5658
5656 5657 5658 5658 5659 5659 5659 5659 5659 5660 5660 5661 5661 5661 5661 5661 5661 5661 5660 5660 5659 5658 5658 5657 5657 5657 5657 5656 5656 5655 5655 5655 5655 5655 5654 5654 5654 5654 5653 5653 5653 5653 5653
5648 5650 5650 5651 5651 5652 5652 5652 5653 5653 5654 5655 5655 5655 5655 5655 5655 5655 5654 5654 5653 5653 5652 5651 5651 5651 5651 5650 5650 5650 5649 5649 5648 5648 5648 5648 5648 5648 5648 5648 5647 5648 5647
5641 5642 5643 5644 5644 5645 5645 5646 5646 5646 5647 5648 5648 5649 5649 5649 5649 5648 5648 5648 5647 5647 5646 5646 5645 5645 5644 5644 5643 5643 5643 5643 5642 5642 5642 5642 5642 5642 5642 5642 5642 5642 5642
5634 5635 5636 5637 5637 5638 5638 5639 5639 5639 5640 5640 5641 5641 5642 5642 5642 5642 5642 5641 5641 5641 5640 5639 5639 5638 5638 5638 5637 5637 5636 5636 5636 5636 5636 5636 5636 5636 5637 5637 5637 5637 5637
5628 5629 5629 5630 5631 5631 5631 5631 5632 5632 5633 5633 5634 5634 5635 5635 5635 5635 5635 5635 5634 5634 5634 5633 5632 5632 5631 5631 5631 5630 5630 5630 5630 5630 5630 5630 5630 5631 5631 5631 5631 5631 5631